Time,TemperatureF,DewpointF,PressureIn,WindDirection,WindDirectionDegrees,WindSpeedMPH,WindSpeedGustMPH,Humidity,HourlyPrecipIn,Conditions,Clouds,dailyrainin,SoftwareType,DateUTC
2013-10-09 00:01:00,58.8,48.3,30.02,North,-999,0.0,1.6,68,0.00,,,0.00,pywws,2013-10-09 05:01:00,
2013-10-09 00:16:00,58.3,48.5,30.03,North,-999,0.0,1.6,70,0.00,,,0.00,pywws,2013-10-09 05:16:00,
2013-10-09 00:21:00,58.3,48.5,30.03,North,-999,0.0,1.6,70,0.00,,,0.00,pywws,2013-10-09 05:21:00,
2013-10-09 00:36:00,58.1,48.4,30.03,North,-999,0.0,0.7,70,0.00,,,0.00,pywws,2013-10-09 05:36:00,
2013-10-09 00:41:00,58.1,48.4,30.03,North,-999,0.0,0.7,70,0.00,,,0.00,pywws,2013-10-09 05:41:00,
2013-10-09 01:01:00,57.6,48.2,30.03,SE,135,1.6,2.2,71,0.00,,,0.00,pywws,2013-10-09 06:01:00,
2013-10-09 01:11:00,57.4,48.4,30.03,SE,135,0.7,1.6,72,0.00,,,0.00,pywws,2013-10-09 06:11:00,
2013-10-09 01:16:00,56.5,48.3,30.04,North,-999,0.0,0.7,74,0.00,,,0.00,pywws,2013-10-09 06:16:00,
2013-10-09 01:21:00,56.5,48.3,30.04,North,-999,0.0,0.7,74,0.00,,,0.00,pywws,2013-10-09 06:21:00,
2013-10-09 01:36:00,56.1,48.3,30.04,North,-999,0.0,0.7,75,0.00,,,0.00,pywws,2013-10-09 06:36:00,
2013-10-09 01:41:00,56.1,48.3,30.04,North,-999,0.0,0.7,75,0.00,,,0.00,pywws,2013-10-09 06:41:00,
2013-10-09 01:56:00,55.8,48.3,30.05,SW,225,0.7,1.6,76,0.00,,,0.00,pywws,2013-10-09 06:56:00,
2013-10-09 02:01:00,55.8,48.3,30.05,SW,225,0.7,1.6,76,0.00,,,0.00,pywws,2013-10-09 07:01:00,
2013-10-09 02:16:00,55.4,48.0,30.05,North,-999,0.0,0.7,76,0.00,,,0.00,pywws,2013-10-09 07:16:00,
2013-10-09 02:21:00,55.4,48.0,30.05,North,-999,0.0,0.7,76,0.00,,,0.00,pywws,2013-10-09 07:21:00,
2013-10-09 02:36:00,54.5,48.1,30.05,North,-999,0.0,0.0,79,0.00,,,0.00,pywws,2013-10-09 07:36:00,
2013-10-09 02:41:00,54.5,48.1,30.05,North,-999,0.0,0.0,79,0.00,,,0.00,pywws,2013-10-09 07:41:00,
2013-10-09 03:01:00,54.1,48.4,30.05,North,-999,0.0,0.7,81,0.00,,,0.00,pywws,2013-10-09 08:01:00,
2013-10-09 03:11:00,54.0,48.3,30.05,North,-999,0.0,0.7,81,0.00,,,0.00,pywws,2013-10-09 08:11:00,
2013-10-09 03:16:00,53.8,48.1,30.05,North,-999,0.0,0.7,81,0.00,,,0.00,pywws,2013-10-09 08:16:00,
2013-10-09 03:21:00,53.8,48.1,30.05,North,-999,0.0,0.7,81,0.00,,,0.00,pywws,2013-10-09 08:21:00,
2013-10-09 03:36:00,53.2,48.2,30.06,SE,135,0.7,1.6,83,0.00,,,0.00,pywws,2013-10-09 08:36:00,
2013-10-09 03:41:00,53.2,48.2,30.06,SE,135,0.7,1.6,83,0.00,,,0.00,pywws,2013-10-09 08:41:00,
2013-10-09 03:56:00,52.9,48.2,30.06,SE,135,0.7,2.2,84,0.00,,,0.00,pywws,2013-10-09 08:56:00,
2013-10-09 04:01:00,52.9,48.2,30.06,SE,135,0.7,2.2,84,0.00,,,0.00,pywws,2013-10-09 09:01:00,
2013-10-09 04:16:00,52.5,48.1,30.06,North,-999,0.0,0.7,85,0.00,,,0.00,pywws,2013-10-09 09:16:00,
2013-10-09 04:21:00,52.5,48.1,30.06,North,-999,0.0,0.7,85,0.00,,,0.00,pywws,2013-10-09 09:21:00,
2013-10-09 04:36:00,52.2,48.1,30.07,SE,135,0.7,1.6,86,0.00,,,0.00,pywws,2013-10-09 09:36:00,
2013-10-09 04:41:00,52.2,48.1,30.07,SE,135,0.7,1.6,86,0.00,,,0.00,pywws,2013-10-09 09:41:00,
2013-10-09 04:56:00,52.3,48.6,30.07,North,-999,0.0,0.7,87,0.00,,,0.00,pywws,2013-10-09 09:56:00,
2013-10-09 05:01:00,52.3,48.6,30.07,North,-999,0.0,0.7,87,0.00,,,0.00,pywws,2013-10-09 10:01:00,
2013-10-09 05:16:00,51.8,48.1,30.07,North,-999,0.0,0.0,87,0.00,,,0.00,pywws,2013-10-09 10:16:00,
2013-10-09 05:21:00,51.8,48.1,30.07,North,-999,0.0,0.0,87,0.00,,,0.00,pywws,2013-10-09 10:21:00,
2013-10-09 05:36:00,51.8,48.4,30.07,SE,135,0.7,1.6,88,0.00,,,0.00,pywws,2013-10-09 10:36:00,
2013-10-09 05:41:00,51.8,48.4,30.07,SE,135,0.7,1.6,88,0.00,,,0.00,pywws,2013-10-09 10:41:00,
2013-10-09 06:01:00,51.1,48.0,30.07,North,-999,0.0,0.0,89,0.00,,,0.00,pywws,2013-10-09 11:01:00,
2013-10-09 06:11:00,51.1,48.2,30.07,SE,135,0.7,1.6,90,0.00,,,0.00,pywws,2013-10-09 11:11:00,
2013-10-09 06:16:00,51.1,48.5,30.07,North,-999,0.0,0.7,91,0.00,,,0.00,pywws,2013-10-09 11:16:00,
2013-10-09 06:21:00,51.1,48.5,30.07,North,-999,0.0,0.7,91,0.00,,,0.00,pywws,2013-10-09 11:21:00,
2013-10-09 06:36:00,51.3,48.4,30.07,SE,135,0.7,2.2,90,0.00,,,0.00,pywws,2013-10-09 11:36:00,
2013-10-09 06:41:00,51.3,48.4,30.07,SE,135,0.7,2.2,90,0.00,,,0.00,pywws,2013-10-09 11:41:00,
2013-10-09 06:56:00,50.9,48.1,30.07,North,-999,0.0,0.7,90,0.00,,,0.00,pywws,2013-10-09 11:56:00,
2013-10-09 07:01:00,50.9,48.1,30.07,North,-999,0.0,0.7,90,0.00,,,0.00,pywws,2013-10-09 12:01:00,
2013-10-09 07:16:00,50.9,48.4,30.07,SE,135,1.6,2.2,91,0.00,,,0.00,pywws,2013-10-09 12:16:00,
2013-10-09 07:21:00,50.9,48.4,30.07,SE,135,1.6,2.2,91,0.00,,,0.00,pywws,2013-10-09 12:21:00,
2013-10-09 07:36:00,51.6,49.1,30.07,SE,135,1.6,2.2,91,0.00,,,0.00,pywws,2013-10-09 12:36:00,
2013-10-09 07:41:00,51.6,49.1,30.07,SE,135,1.6,2.2,91,0.00,,,0.00,pywws,2013-10-09 12:41:00,
2013-10-09 07:56:00,53.1,48.4,30.08,West,270,0.7,1.6,84,0.00,,,0.00,pywws,2013-10-09 12:56:00,
2013-10-09 08:01:00,53.1,48.4,30.08,West,270,0.7,1.6,84,0.00,,,0.00,pywws,2013-10-09 13:01:00,
2013-10-09 08:16:00,53.8,49.1,30.08,NE,45,0.7,2.2,84,0.00,,,0.00,pywws,2013-10-09 13:16:00,
2013-10-09 08:21:00,53.8,49.1,30.08,NE,45,0.7,2.2,84,0.00,,,0.00,pywws,2013-10-09 13:21:00,
2013-10-09 08:36:00,57.0,51.2,30.09,SW,225,0.7,2.2,81,0.00,,,0.00,pywws,2013-10-09 13:36:00,
2013-10-09 08:41:00,57.0,51.2,30.09,SW,225,0.7,2.2,81,0.00,,,0.00,pywws,2013-10-09 13:41:00,
2013-10-09 08:56:00,57.6,50.8,30.09,East,90,0.7,2.2,78,0.00,,,0.00,pywws,2013-10-09 13:56:00,
2013-10-09 09:01:00,57.6,50.8,30.09,East,90,0.7,2.2,78,0.00,,,0.00,pywws,2013-10-09 14:01:00,
2013-10-09 09:16:00,61.2,51.3,30.09,SW,225,2.2,3.8,70,0.00,,,0.00,pywws,2013-10-09 14:16:00,
2013-10-09 09:21:00,61.2,51.3,30.09,SW,225,2.2,3.8,70,0.00,,,0.00,pywws,2013-10-09 14:21:00,
2013-10-09 09:36:00,60.8,51.7,30.09,WSW,248,2.2,3.8,72,0.00,,,0.00,pywws,2013-10-09 14:36:00,
2013-10-09 09:41:00,60.8,51.7,30.09,WSW,248,2.2,3.8,72,0.00,,,0.00,pywws,2013-10-09 14:41:00,
2013-10-09 09:56:00,62.8,52.8,30.10,NE,45,0.7,2.2,70,0.00,,,0.00,pywws,2013-10-09 14:56:00,
2013-10-09 10:01:00,62.8,52.8,30.10,NE,45,0.7,2.2,70,0.00,,,0.00,pywws,2013-10-09 15:01:00,
2013-10-09 10:16:00,67.8,54.3,30.10,West,270,3.1,4.5,62,0.00,,,0.00,pywws,2013-10-09 15:16:00,
2013-10-09 10:21:00,67.8,54.3,30.10,West,270,3.1,4.5,62,0.00,,,0.00,pywws,2013-10-09 15:21:00,
2013-10-09 10:36:00,66.6,53.1,30.10,SW,225,2.2,5.4,62,0.00,,,0.00,pywws,2013-10-09 15:36:00,
2013-10-09 10:41:00,66.6,53.1,30.10,SW,225,2.2,5.4,62,0.00,,,0.00,pywws,2013-10-09 15:41:00,
2013-10-09 10:56:00,66.7,52.9,30.10,South,180,1.6,3.8,61,0.00,,,0.00,pywws,2013-10-09 15:56:00,
2013-10-09 11:01:00,66.7,52.9,30.10,South,180,1.6,3.8,61,0.00,,,0.00,pywws,2013-10-09 16:01:00,
2013-10-09 11:16:00,68.5,53.2,30.10,SW,225,3.1,6.0,58,0.00,,,0.00,pywws,2013-10-09 16:16:00,
2013-10-09 11:21:00,68.5,53.2,30.10,SW,225,3.1,6.0,58,0.00,,,0.00,pywws,2013-10-09 16:21:00,
2013-10-09 11:36:00,68.5,52.2,30.10,East,90,2.2,4.5,56,0.00,,,0.00,pywws,2013-10-09 16:36:00,
2013-10-09 11:41:00,68.5,52.2,30.10,East,90,2.2,4.5,56,0.00,,,0.00,pywws,2013-10-09 16:41:00,
2013-10-09 11:56:00,70.9,53.4,30.09,West,270,3.1,5.4,54,0.00,,,0.00,pywws,2013-10-09 16:56:00,
2013-10-09 12:01:00,70.9,53.4,30.09,West,270,3.1,5.4,54,0.00,,,0.00,pywws,2013-10-09 17:01:00,
2013-10-09 12:16:00,75.2,53.6,30.09,East,90,1.6,3.1,47,0.00,,,0.00,pywws,2013-10-09 17:16:00,
2013-10-09 12:21:00,75.2,53.6,30.09,East,90,1.6,3.1,47,0.00,,,0.00,pywws,2013-10-09 17:21:00,
2013-10-09 12:36:00,74.7,53.1,30.09,SW,225,2.2,3.8,47,0.00,,,0.00,pywws,2013-10-09 17:36:00,
2013-10-09 12:41:00,74.7,53.1,30.09,SW,225,2.2,3.8,47,0.00,,,0.00,pywws,2013-10-09 17:41:00,
2013-10-09 12:56:00,76.3,52.7,30.09,SE,135,1.6,3.1,44,0.00,,,0.00,pywws,2013-10-09 17:56:00,
2013-10-09 13:01:00,76.3,52.7,30.09,SE,135,1.6,3.1,44,0.00,,,0.00,pywws,2013-10-09 18:01:00,
2013-10-09 13:16:00,77.5,53.3,30.08,West,270,4.5,9.2,43,0.00,,,0.00,pywws,2013-10-09 18:16:00,
2013-10-09 13:21:00,77.5,53.3,30.08,West,270,4.5,9.2,43,0.00,,,0.00,pywws,2013-10-09 18:21:00,
2013-10-09 13:36:00,77.7,53.4,30.07,SE,135,1.6,3.8,43,0.00,,,0.00,pywws,2013-10-09 18:36:00,
2013-10-09 13:41:00,77.7,53.4,30.07,SE,135,1.6,3.8,43,0.00,,,0.00,pywws,2013-10-09 18:41:00,
2013-10-09 13:56:00,76.5,51.0,30.06,SE,135,3.8,6.0,41,0.00,,,0.00,pywws,2013-10-09 18:56:00,
2013-10-09 14:01:00,76.5,51.0,30.06,SE,135,3.8,6.0,41,0.00,,,0.00,pywws,2013-10-09 19:01:00,
2013-10-09 14:16:00,78.4,50.0,30.06,SW,225,1.6,4.5,37,0.00,,,0.00,pywws,2013-10-09 19:16:00,
2013-10-09 14:21:00,78.4,50.0,30.06,SW,225,1.6,4.5,37,0.00,,,0.00,pywws,2013-10-09 19:21:00,
2013-10-09 14:36:00,79.9,48.2,30.05,SW,225,3.8,6.0,33,0.00,,,0.00,pywws,2013-10-09 19:36:00,
2013-10-09 14:41:00,79.9,48.2,30.05,SW,225,3.8,6.0,33,0.00,,,0.00,pywws,2013-10-09 19:41:00,
2013-10-09 14:56:00,77.9,47.3,30.05,South,180,3.1,4.5,34,0.00,,,0.00,pywws,2013-10-09 19:56:00,
2013-10-09 15:01:00,77.9,47.3,30.05,South,180,3.1,4.5,34,0.00,,,0.00,pywws,2013-10-09 20:01:00,
2013-10-09 15:16:00,79.0,46.6,30.05,East,90,3.1,4.5,32,0.00,,,0.00,pywws,2013-10-09 20:16:00,
2013-10-09 15:21:00,79.0,46.6,30.05,East,90,3.1,4.5,32,0.00,,,0.00,pywws,2013-10-09 20:21:00,
2013-10-09 15:36:00,80.6,47.1,30.04,SE,135,1.6,2.2,31,0.00,,,0.00,pywws,2013-10-09 20:36:00,
2013-10-09 15:41:00,80.6,47.1,30.04,SE,135,1.6,2.2,31,0.00,,,0.00,pywws,2013-10-09 20:41:00,
2013-10-09 15:56:00,77.4,46.8,30.04,North,-999,0.0,0.7,34,0.00,,,0.00,pywws,2013-10-09 20:56:00,
2013-10-09 16:01:00,77.4,46.8,30.04,North,-999,0.0,0.7,34,0.00,,,0.00,pywws,2013-10-09 21:01:00,
2013-10-09 16:16:00,80.2,45.1,30.03,North,-999,0.0,1.6,29,0.00,,,0.00,pywws,2013-10-09 21:16:00,
2013-10-09 16:21:00,80.2,45.1,30.03,North,-999,0.0,1.6,29,0.00,,,0.00,pywws,2013-10-09 21:21:00,
2013-10-09 16:36:00,80.1,45.8,30.03,NE,45,2.2,3.8,30,0.00,,,0.00,pywws,2013-10-09 21:36:00,
2013-10-09 16:41:00,80.1,45.8,30.03,NE,45,2.2,3.8,30,0.00,,,0.00,pywws,2013-10-09 21:41:00,
2013-10-09 16:56:00,78.3,46.0,30.03,SW,225,1.6,3.1,32,0.00,,,0.00,pywws,2013-10-09 21:56:00,
2013-10-09 17:01:00,78.3,46.0,30.03,SW,225,1.6,3.1,32,0.00,,,0.00,pywws,2013-10-09 22:01:00,
2013-10-09 17:16:00,76.1,45.7,30.03,East,90,0.7,1.6,34,0.00,,,0.00,pywws,2013-10-09 22:16:00,
2013-10-09 17:21:00,76.1,45.7,30.03,East,90,0.7,1.6,34,0.00,,,0.00,pywws,2013-10-09 22:21:00,
2013-10-09 17:36:00,73.6,46.4,30.03,SE,135,3.8,4.5,38,0.00,,,0.00,pywws,2013-10-09 22:36:00,
2013-10-09 17:41:00,73.6,46.4,30.03,SE,135,3.8,4.5,38,0.00,,,0.00,pywws,2013-10-09 22:41:00,
2013-10-09 17:56:00,72.3,46.0,30.03,East,90,1.6,2.2,39,0.00,,,0.00,pywws,2013-10-09 22:56:00,
2013-10-09 18:01:00,72.3,46.0,30.03,East,90,1.6,2.2,39,0.00,,,0.00,pywws,2013-10-09 23:01:00,
2013-10-09 18:16:00,71.2,47.0,30.03,SE,135,2.2,3.8,42,0.00,,,0.00,pywws,2013-10-09 23:16:00,
2013-10-09 18:21:00,71.2,47.0,30.03,SE,135,2.2,3.8,42,0.00,,,0.00,pywws,2013-10-09 23:21:00,
2013-10-09 18:36:00,69.6,46.7,30.03,SE,135,0.7,1.6,44,0.00,,,0.00,pywws,2013-10-09 23:36:00,
2013-10-09 18:41:00,69.6,46.7,30.03,SE,135,0.7,1.6,44,0.00,,,0.00,pywws,2013-10-09 23:41:00,
2013-10-09 18:56:00,68.0,45.9,30.03,North,-999,0.0,1.6,45,0.00,,,0.00,pywws,2013-10-09 23:56:00,
2013-10-09 19:01:00,68.0,45.9,30.03,North,-999,0.0,1.6,45,0.00,,,0.00,pywws,2013-10-10 00:01:00,
2013-10-09 19:16:00,66.6,46.8,30.04,North,-999,0.0,0.7,49,0.00,,,0.00,pywws,2013-10-10 00:16:00,
2013-10-09 19:21:00,66.6,46.8,30.04,North,-999,0.0,0.7,49,0.00,,,0.00,pywws,2013-10-10 00:21:00,
2013-10-09 19:36:00,65.1,48.1,30.04,North,-999,0.0,1.6,54,0.00,,,0.00,pywws,2013-10-10 00:36:00,
2013-10-09 19:41:00,65.1,48.1,30.04,North,-999,0.0,1.6,54,0.00,,,0.00,pywws,2013-10-10 00:41:00,
2013-10-09 19:56:00,64.4,48.4,30.05,SE,135,0.7,2.2,56,0.00,,,0.00,pywws,2013-10-10 00:56:00,
2013-10-09 20:01:00,64.4,48.4,30.05,SE,135,0.7,2.2,56,0.00,,,0.00,pywws,2013-10-10 01:01:00,
2013-10-09 20:16:00,63.5,48.5,30.04,SE,135,1.6,2.2,58,0.00,,,0.00,pywws,2013-10-10 01:16:00,
2013-10-09 20:21:00,63.5,48.5,30.04,SE,135,1.6,2.2,58,0.00,,,0.00,pywws,2013-10-10 01:21:00,
2013-10-09 20:36:00,63.0,48.4,30.04,SE,135,1.6,2.2,59,0.00,,,0.00,pywws,2013-10-10 01:36:00,
2013-10-09 20:41:00,63.0,48.4,30.04,SE,135,1.6,2.2,59,0.00,,,0.00,pywws,2013-10-10 01:41:00,
2013-10-09 20:56:00,62.1,48.4,30.05,SE,135,2.2,3.8,61,0.00,,,0.00,pywws,2013-10-10 01:56:00,
2013-10-09 21:01:00,62.1,48.4,30.05,SE,135,2.2,3.8,61,0.00,,,0.00,pywws,2013-10-10 02:01:00,
2013-10-09 21:16:00,61.9,48.3,30.05,SE,135,1.6,3.1,61,0.00,,,0.00,pywws,2013-10-10 02:16:00,
2013-10-09 21:21:00,61.9,48.3,30.05,SE,135,1.6,3.1,61,0.00,,,0.00,pywws,2013-10-10 02:21:00,
2013-10-09 21:36:00,61.5,48.4,30.05,East,90,1.6,3.1,62,0.00,,,0.00,pywws,2013-10-10 02:36:00,
2013-10-09 21:41:00,61.5,48.4,30.05,East,90,1.6,3.1,62,0.00,,,0.00,pywws,2013-10-10 02:41:00,
2013-10-09 21:56:00,61.0,47.4,30.06,SE,135,0.7,1.6,61,0.00,,,0.00,pywws,2013-10-10 02:56:00,
2013-10-09 22:01:00,61.0,47.4,30.06,SE,135,0.7,1.6,61,0.00,,,0.00,pywws,2013-10-10 03:01:00,
2013-10-09 22:16:00,59.7,47.1,30.06,SE,135,1.6,3.1,63,0.00,,,0.00,pywws,2013-10-10 03:16:00,
2013-10-09 22:21:00,59.7,47.1,30.06,SE,135,1.6,3.1,63,0.00,,,0.00,pywws,2013-10-10 03:21:00,
2013-10-09 22:41:00,59.2,47.0,30.06,East,90,0.7,1.6,64,0.00,,,0.00,pywws,2013-10-10 03:41:00,
2013-10-09 22:51:00,58.8,47.1,30.06,SE,135,0.7,1.6,65,0.00,,,0.00,pywws,2013-10-10 03:51:00,
2013-10-09 23:01:00,58.3,46.6,30.06,SE,135,1.6,3.1,65,0.00,,,0.00,pywws,2013-10-10 04:01:00,
2013-10-09 23:11:00,57.9,46.6,30.06,SE,135,0.7,1.6,66,0.00,,,0.00,pywws,2013-10-10 04:11:00,
2013-10-09 23:16:00,57.4,46.5,30.06,SE,135,1.6,3.1,67,0.00,,,0.00,pywws,2013-10-10 04:16:00,
2013-10-09 23:21:00,57.4,46.5,30.06,SE,135,1.6,3.1,67,0.00,,,0.00,pywws,2013-10-10 04:21:00,
2013-10-09 23:36:00,56.7,46.2,30.06,SE,135,1.6,3.1,68,0.00,,,0.00,pywws,2013-10-10 04:36:00,
2013-10-09 23:41:00,56.7,46.2,30.06,SE,135,1.6,3.1,68,0.00,,,0.00,pywws,2013-10-10 04:41:00,
2013-10-09 23:56:00,56.1,46.1,30.06,SE,135,1.6,3.1,69,0.00,,,0.00,pywws,2013-10-10 04:56:00,